Weather History for KDRO - September, 2012

Change the Weather History Date:

Sunday, September 23, 2012

  Actual Average Record
Temperature  
Mean Temperature 61 °F 56 °F  
Max Temperature 80 °F 73 °F 84 °F (1982)
Min Temperature 42 °F 39 °F 25 °F (1974)
Degree Days  
Heating Degree Days 4 9  
Month to date heating degree days 75 120  
Since 1 July heating degree days 80 149  
Cooling Degree Days 0 0  
Month to date cooling degree days 35 3  
Year to date cooling degree days 477 240  
Growing Degree Days 12 (Base 50)    
Moisture  
Dew Point 24 °F    
Average Humidity 28    
Maximum Humidity 45    
Minimum Humidity 11    
Precipitation  
Precipitation 0.00 in 0.07 in 0.64 in (2007)
Month to date precipitation 0.36 1.56  
Year to date precipitation 5.62 11.53  
Sea Level Pressure  
Sea Level Pressure 30.11 in    
Wind  
Wind Speed 5 mph (NNW)    
Max Wind Speed 21 mph    
Max Gust Speed 26 mph    
Visibility 10 miles    
Events      
T = Trace of Precipitation, MM = Missing Value Source: NWS Daily Summary

Daily Weather History Graph

Daily Weather History Graph

Search for Another Location

Airport or City:

Trip Planner

Search our weather history database for the weather conditions in past years. The results will help you decide how hot, cold, wet, or windy it might be!

Date:

Astronomy

Sep. 23, 2012 Rise Set
Actual Time 7:00 AM MDT 7:05 PM MDT
Civil Twilight 6:34 AM MDT 7:31 PM MDT
Nautical Twilight 6:03 AM MDT 8:01 PM MDT
Astronomical Twilight 5:33 AM MDT 8:32 PM MDT
Moon 3:02 PM MDT (9/23) 12:23 AM MDT (9/23)
Length of Visible Light 12h 57m
Length of Day
12h 05m
First Quarter, 60% of the Moon is Illuminated
Sep 23
First Quarter
Sep 29
Full
Oct 8
Last Quarter
Oct 15
New
Oct 21
First Quarter

Hourly Weather History & Observations

Time (MDT) Temp. Windchill Dew Point Humidity Pressure Visibility Wind Dir Wind Speed Gust Speed Precip Events Conditions
12:53 AM 50.0 °F - 19.9 °F 31% 30.07 in 10.0 mi North 4.6 mph - N/A   Clear
1:53 AM 48.0 °F - 19.0 °F 32% 30.08 in 10.0 mi NE 4.6 mph - N/A   Clear
2:53 AM 48.0 °F - 19.9 °F 33% 30.09 in 10.0 mi North 6.9 mph - N/A   Clear
3:53 AM 46.0 °F 44.8 °F 21.9 °F 39% 30.10 in 10.0 mi North 3.5 mph - N/A   Clear
4:53 AM 45.0 °F 41.2 °F 21.0 °F 39% 30.11 in 10.0 mi NNE 6.9 mph - N/A   Clear
5:53 AM 44.1 °F 42.5 °F 21.9 °F 42% 30.13 in 10.0 mi NE 3.5 mph - N/A   Clear
6:53 AM 44.1 °F - 21.9 °F 42% 30.16 in 10.0 mi Calm Calm - N/A   Clear
7:53 AM 45.0 °F 41.8 °F 25.0 °F 46% 30.19 in 10.0 mi NNE 5.8 mph - N/A   Clear
8:53 AM 55.0 °F - 25.0 °F 31% 30.19 in 10.0 mi Calm Calm - N/A   Clear
9:53 AM 63.0 °F - 30.9 °F 30% 30.20 in 10.0 mi East 4.6 mph - N/A   Clear
10:53 AM 71.1 °F - 25.0 °F 18% 30.17 in 10.0 mi East 6.9 mph - N/A   Partly Cloudy
11:53 AM 75.0 °F - 25.0 °F 16% 30.16 in 10.0 mi Variable 3.5 mph - N/A   Clear
12:53 PM 78.1 °F - 23.0 °F 13% 30.14 in 10.0 mi WSW 8.1 mph - N/A   Clear
1:53 PM 78.1 °F - 21.0 °F 12% 30.12 in 10.0 mi NW 6.9 mph 19.6 mph N/A   Partly Cloudy
2:53 PM 80.1 °F - 21.9 °F 12% 30.09 in 10.0 mi West 10.4 mph 19.6 mph N/A   Clear
3:53 PM 78.1 °F - 21.0 °F 12% 30.08 in 10.0 mi West 10.4 mph - N/A   Partly Cloudy
4:53 PM 75.9 °F - 21.9 °F 13% 30.08 in 10.0 mi SW 8.1 mph 26.5 mph N/A   Clear
5:53 PM 75.9 °F - 24.1 °F 15% 30.09 in 10.0 mi WSW 10.4 mph - N/A   Scattered Clouds
6:53 PM 72.0 °F - 25.0 °F 17% 30.10 in 10.0 mi WSW 8.1 mph - N/A   Clear
7:53 PM 70.0 °F - 25.0 °F 18% 30.11 in 10.0 mi West 6.9 mph - N/A   Scattered Clouds
8:53 PM 68.0 °F - 26.1 °F 21% 30.08 in 10.0 mi NW 6.9 mph - N/A   Partly Cloudy
9:53 PM 59.0 °F - 28.0 °F 31% 30.09 in 10.0 mi North 3.5 mph - N/A   Clear
10:53 PM 57.0 °F - 28.0 °F 33% 30.07 in 10.0 mi North 4.6 mph - N/A   Clear
11:53 PM 55.0 °F - 28.9 °F 37% 30.06 in 10.0 mi Calm Calm - N/A   Clear